Time,TemperatureF,DewpointF,PressureIn,WindDirection,WindDirectionDegrees,WindSpeedMPH,WindSpeedGustMPH,Humidity,HourlyPrecipIn,Conditions,Clouds,dailyrainin,SolarRadiationWatts/m^2,SoftwareType,DateUTC
2013-04-24 00:01:00,32.1,30.6,30.32,West,259,3.5,3.5,94,0.00,OVC,,0.56,0.0,WeatherDisplay:10.37,2013-04-24 05:01:00,
2013-04-24 00:06:00,32.1,30.6,30.32,West,264,4.6,4.6,94,0.00,OVC,,0.56,0.0,WeatherDisplay:10.37,2013-04-24 05:06:00,
2013-04-24 00:11:00,32.1,30.6,30.31,WSW,250,3.5,3.5,94,0.00,OVC,,0.56,0.0,WeatherDisplay:10.37,2013-04-24 05:11:00,
2013-04-24 00:16:00,32.1,30.3,30.31,WSW,248,3.5,3.5,93,0.00,OVC,,0.56,0.0,WeatherDisplay:10.37,2013-04-24 05:16:00,
2013-04-24 00:21:00,32.2,30.4,30.31,WNW,296,4.0,4.0,93,0.00,OVC,,0.56,0.0,WeatherDisplay:10.37,2013-04-24 05:21:00,
2013-04-24 00:26:00,32.3,30.5,30.31,WSW,240,6.9,6.9,93,0.00,OVC,,0.56,0.0,WeatherDisplay:10.37,2013-04-24 05:26:00,
2013-04-24 00:31:00,32.4,30.6,30.31,WSW,246,3.5,3.5,93,0.00,OVC,,0.56,0.0,WeatherDisplay:10.37,2013-04-24 05:31:00,
2013-04-24 00:36:00,32.5,30.7,30.31,NW,313,3.5,3.5,93,0.00,OVC,,0.56,0.0,WeatherDisplay:10.37,2013-04-24 05:36:00,
2013-04-24 00:41:00,32.6,30.8,30.32,WNW,284,4.6,4.6,93,0.00,OVC,,0.56,0.0,WeatherDisplay:10.37,2013-04-24 05:41:00,
2013-04-24 00:46:00,32.6,30.5,30.32,West,271,4.6,4.6,92,0.00,OVC,,0.56,0.0,WeatherDisplay:10.37,2013-04-24 05:46:00,
2013-04-24 00:51:00,32.8,30.7,30.31,WNW,288,6.0,6.0,92,0.00,OVC,,0.56,0.0,WeatherDisplay:10.37,2013-04-24 05:51:00,
2013-04-24 00:56:00,32.9,30.6,30.32,West,275,5.8,5.8,91,0.00,OVC,,0.56,0.0,WeatherDisplay:10.37,2013-04-24 05:56:00,
2013-04-24 01:01:00,32.9,30.6,30.31,NW,313,8.1,8.1,91,0.00,RA,,0.00,0.0,WeatherDisplay:10.37,2013-04-24 06:01:00,
2013-04-24 01:06:00,33.0,30.4,30.32,NW,304,5.8,5.8,90,0.00,OVC,,0.00,0.0,WeatherDisplay:10.37,2013-04-24 06:06:00,
2013-04-24 01:11:00,33.0,30.4,30.31,NW,305,5.8,5.8,90,0.00,OVC,,0.00,0.0,WeatherDisplay:10.37,2013-04-24 06:11:00,
2013-04-24 01:16:00,33.0,30.4,30.31,WNW,296,6.0,6.0,90,0.00,OVC,,0.00,0.0,WeatherDisplay:10.37,2013-04-24 06:16:00,
2013-04-24 01:21:00,32.9,30.3,30.32,West,281,6.9,6.9,90,0.00,OVC,,0.00,0.0,WeatherDisplay:10.37,2013-04-24 06:21:00,
2013-04-24 01:26:00,32.9,30.3,30.32,WNW,300,5.8,5.8,90,0.00,OVC,,0.00,0.0,WeatherDisplay:10.37,2013-04-24 06:26:00,
2013-04-24 01:31:00,32.8,29.9,30.32,West,280,4.0,4.0,89,0.00,OVC,,0.00,0.0,WeatherDisplay:10.37,2013-04-24 06:31:00,
2013-04-24 01:36:00,32.7,29.8,30.32,WNW,296,5.8,5.8,89,0.00,OVC,,0.00,0.0,WeatherDisplay:10.37,2013-04-24 06:36:00,
2013-04-24 01:41:00,32.5,29.6,30.31,NW,309,3.5,3.5,89,0.00,OVC,,0.00,0.0,WeatherDisplay:10.37,2013-04-24 06:41:00,
2013-04-24 01:46:00,32.3,29.4,30.31,WNW,298,4.6,4.6,89,0.00,OVC,,0.00,0.0,WeatherDisplay:10.37,2013-04-24 06:46:00,
2013-04-24 01:51:00,32.2,29.3,30.31,West,263,5.8,5.8,89,0.00,OVC,,0.00,0.0,WeatherDisplay:10.37,2013-04-24 06:51:00,
2013-04-24 01:56:00,32.0,29.4,30.31,NW,311,4.6,4.6,90,0.00,OVC,,0.00,0.0,WeatherDisplay:10.37,2013-04-24 06:56:00,
2013-04-24 02:01:00,31.9,29.3,30.31,WNW,287,6.9,6.9,90,0.00,SCT,,0.00,0.0,WeatherDisplay:10.37,2013-04-24 07:01:00,
2013-04-24 02:06:00,31.7,29.1,30.31,WNW,296,5.0,5.0,90,0.00,SCT,,0.00,0.0,WeatherDisplay:10.37,2013-04-24 07:06:00,
2013-04-24 02:11:00,31.6,29.0,30.31,West,272,3.5,3.5,90,0.00,SCT,,0.00,0.0,WeatherDisplay:10.37,2013-04-24 07:11:00,
2013-04-24 02:16:00,31.4,28.8,30.31,WNW,294,4.6,4.6,90,0.00,SCT,,0.00,0.0,WeatherDisplay:10.37,2013-04-24 07:16:00,
2013-04-24 02:21:00,31.3,28.7,30.31,NW,305,6.0,6.0,90,0.00,SCT,,0.00,0.0,WeatherDisplay:10.37,2013-04-24 07:21:00,
2013-04-24 02:26:00,31.3,28.7,30.31,WNW,294,6.9,6.9,90,0.00,SCT,,0.00,0.0,WeatherDisplay:10.37,2013-04-24 07:26:00,
2013-04-24 02:31:00,31.2,28.3,30.31,NW,304,4.6,4.6,89,0.00,SCT,,0.00,0.0,WeatherDisplay:10.37,2013-04-24 07:31:00,
2013-04-24 02:36:00,31.1,28.2,30.31,West,281,9.2,9.2,89,0.00,SCT,,0.00,0.0,WeatherDisplay:10.37,2013-04-24 07:36:00,
2013-04-24 02:41:00,31.1,28.5,30.31,NW,310,11.5,11.5,90,0.00,SCT,,0.00,0.0,WeatherDisplay:10.37,2013-04-24 07:41:00,
2013-04-24 02:46:00,31.0,28.4,30.31,West,281,11.5,11.5,90,0.00,SCT,,0.00,0.0,WeatherDisplay:10.37,2013-04-24 07:46:00,
2013-04-24 02:51:00,31.0,28.4,30.31,West,279,6.9,6.9,90,0.00,SCT,,0.00,0.0,WeatherDisplay:10.37,2013-04-24 07:51:00,
2013-04-24 02:56:00,30.9,28.3,30.31,West,268,11.5,11.5,90,0.00,SCT,,0.00,0.0,WeatherDisplay:10.37,2013-04-24 07:56:00,
2013-04-24 03:01:00,30.8,28.2,30.31,WNW,292,9.2,9.2,90,0.00,FEW,,0.00,0.0,WeatherDisplay:10.37,2013-04-24 08:01:00,
2013-04-24 03:06:00,30.8,28.2,30.31,WNW,300,5.8,5.8,90,0.00,FEW,,0.00,0.0,WeatherDisplay:10.37,2013-04-24 08:06:00,
2013-04-24 03:11:00,30.7,28.1,30.31,NW,315,6.9,6.9,90,0.00,FEW,,0.00,0.0,WeatherDisplay:10.37,2013-04-24 08:11:00,
2013-04-24 03:16:00,30.7,28.1,30.31,WNW,291,5.8,5.8,90,0.00,FEW,,0.00,0.0,WeatherDisplay:10.37,2013-04-24 08:16:00,
2013-04-24 03:21:00,30.6,28.0,30.31,West,275,4.0,4.0,90,0.00,FEW,,0.00,0.0,WeatherDisplay:10.37,2013-04-24 08:21:00,
2013-04-24 03:26:00,30.5,27.9,30.31,NW,324,6.9,6.9,90,0.00,FEW,,0.00,0.0,WeatherDisplay:10.37,2013-04-24 08:26:00,
2013-04-24 03:31:00,30.5,27.9,30.31,WNW,284,5.8,5.8,90,0.00,FEW,,0.00,0.0,WeatherDisplay:10.37,2013-04-24 08:31:00,
2013-04-24 03:36:00,30.4,27.8,30.30,WNW,298,3.5,3.5,90,0.00,FEW,,0.00,0.0,WeatherDisplay:10.37,2013-04-24 08:36:00,
2013-04-24 03:41:00,30.2,27.6,30.30,WNW,297,3.5,3.5,90,0.00,FEW,,0.00,0.0,WeatherDisplay:10.37,2013-04-24 08:41:00,
2013-04-24 03:46:00,30.1,27.5,30.30,West,281,3.5,3.5,90,0.00,FEW,,0.00,0.0,WeatherDisplay:10.37,2013-04-24 08:46:00,
2013-04-24 03:51:00,30.0,27.4,30.30,WNW,300,3.5,3.5,90,0.00,FEW,,0.00,0.0,WeatherDisplay:10.37,2013-04-24 08:51:00,
2013-04-24 03:56:00,29.9,27.3,30.30,West,278,4.0,4.0,90,0.00,FEW,,0.00,0.0,WeatherDisplay:10.37,2013-04-24 08:56:00,
2013-04-24 04:01:00,29.8,27.2,30.31,West,279,2.0,2.0,90,0.00,CLR,,0.00,0.0,WeatherDisplay:10.37,2013-04-24 09:01:00,
2013-04-24 04:06:00,29.7,27.1,30.30,West,279,2.3,2.3,90,0.00,CLR,,0.00,0.0,WeatherDisplay:10.37,2013-04-24 09:06:00,
2013-04-24 04:11:00,29.5,26.9,30.30,West,279,1.2,0.0,90,0.00,CLR,,0.00,0.0,WeatherDisplay:10.37,2013-04-24 09:11:00,
2013-04-24 04:16:00,29.3,26.7,30.30,West,279,2.3,2.3,90,0.00,CLR,,0.00,0.0,WeatherDisplay:10.37,2013-04-24 09:16:00,
2013-04-24 04:21:00,29.2,26.9,30.30,West,279,2.3,2.3,91,0.00,CLR,,0.00,0.0,WeatherDisplay:10.37,2013-04-24 09:21:00,
2013-04-24 04:26:00,29.0,26.7,30.29,West,279,0.0,0.0,91,0.00,CLR,,0.00,0.0,WeatherDisplay:10.37,2013-04-24 09:26:00,
2013-04-24 04:31:00,28.9,26.6,30.29,NW,325,3.5,3.5,91,0.00,CLR,,0.00,0.0,WeatherDisplay:10.37,2013-04-24 09:31:00,
2013-04-24 04:36:00,28.8,26.8,30.29,NW,318,3.5,3.5,92,0.00,CLR,,0.00,0.0,WeatherDisplay:10.37,2013-04-24 09:36:00,
2013-04-24 04:41:00,28.8,26.8,30.30,NNW,329,2.3,2.3,92,0.00,CLR,,0.00,0.0,WeatherDisplay:10.37,2013-04-24 09:41:00,
2013-04-24 04:46:00,28.7,26.7,30.31,NW,311,2.3,2.3,92,0.00,CLR,,0.00,0.0,WeatherDisplay:10.37,2013-04-24 09:46:00,
2013-04-24 04:51:00,28.6,26.6,30.31,NNW,333,3.5,3.5,92,0.00,CLR,,0.00,0.0,WeatherDisplay:10.37,2013-04-24 09:51:00,
2013-04-24 04:56:00,28.5,26.5,30.31,WNW,296,3.5,3.5,92,0.00,CLR,,0.00,0.0,WeatherDisplay:10.37,2013-04-24 09:56:00,
2013-04-24 05:01:00,28.4,26.4,30.31,WNW,296,2.3,2.3,92,0.00,CLR,,0.00,0.0,WeatherDisplay:10.37,2013-04-24 10:01:00,
2013-04-24 05:06:00,28.4,26.6,30.32,West,260,3.5,3.5,93,0.00,CLR,,0.00,0.0,WeatherDisplay:10.37,2013-04-24 10:06:00,
2013-04-24 05:11:00,28.3,26.5,30.32,West,265,2.3,2.3,93,0.00,CLR,,0.00,0.0,WeatherDisplay:10.37,2013-04-24 10:11:00,
2013-04-24 05:16:00,28.2,26.2,30.32,West,265,2.3,2.3,92,0.00,CLR,,0.00,0.0,WeatherDisplay:10.37,2013-04-24 10:16:00,
2013-04-24 05:21:00,28.1,26.1,30.33,West,265,1.2,1.2,92,0.00,CLR,,0.00,0.0,WeatherDisplay:10.37,2013-04-24 10:21:00,
2013-04-24 05:26:00,28.0,26.2,30.33,West,265,1.2,1.2,93,0.00,CLR,,0.00,0.0,WeatherDisplay:10.37,2013-04-24 10:26:00,
2013-04-24 05:31:00,27.9,26.1,30.33,West,265,0.0,0.0,93,0.00,CLR,,0.00,0.0,WeatherDisplay:10.37,2013-04-24 10:31:00,
2013-04-24 05:36:00,27.8,26.0,30.33,West,265,2.3,2.3,93,0.00,CLR,,0.00,0.0,WeatherDisplay:10.37,2013-04-24 10:36:00,
2013-04-24 05:41:00,27.7,25.9,30.33,West,265,3.5,3.5,93,0.00,CLR,,0.00,0.0,WeatherDisplay:10.37,2013-04-24 10:41:00,
2013-04-24 05:46:00,27.5,25.7,30.33,West,277,3.5,3.5,93,0.00,CLR,,0.00,0.0,WeatherDisplay:10.37,2013-04-24 10:46:00,
2013-04-24 05:51:00,27.5,25.7,30.33,West,266,3.5,3.5,93,0.00,CLR,,0.00,0.0,WeatherDisplay:10.37,2013-04-24 10:51:00,
2013-04-24 05:56:00,27.5,26.0,30.33,West,266,2.3,2.3,94,0.00,CLR,,0.00,0.0,WeatherDisplay:10.37,2013-04-24 10:56:00,
2013-04-24 06:01:00,27.5,26.0,30.34,West,266,3.5,3.5,94,0.00,CLR,,0.00,0.0,WeatherDisplay:10.37,2013-04-24 11:01:00,
2013-04-24 06:06:00,27.5,26.0,30.34,West,278,1.2,1.2,94,0.00,CLR,,0.00,0.0,WeatherDisplay:10.37,2013-04-24 11:06:00,
2013-04-24 06:11:00,27.4,25.9,30.33,West,277,2.3,2.3,94,0.00,CLR,,0.00,0.0,WeatherDisplay:10.37,2013-04-24 11:11:00,
2013-04-24 06:16:00,27.3,25.8,30.33,West,277,1.2,1.2,94,0.00,CLR,,0.00,0.0,WeatherDisplay:10.37,2013-04-24 11:16:00,
2013-04-24 06:21:00,27.4,25.9,30.33,West,277,1.2,1.2,94,0.00,CLR,,0.00,0.0,WeatherDisplay:10.37,2013-04-24 11:21:00,
2013-04-24 06:26:00,27.3,25.8,30.33,West,277,2.0,2.0,94,0.00,CLR,,0.00,0.0,WeatherDisplay:10.37,2013-04-24 11:26:00,
2013-04-24 06:31:00,27.3,25.8,30.33,West,277,1.2,0.0,94,0.00,CLR,,0.00,0.0,WeatherDisplay:10.37,2013-04-24 11:31:00,
2013-04-24 06:36:00,27.1,25.3,30.33,West,277,0.0,0.0,93,0.00,CLR,,0.00,0.0,WeatherDisplay:10.37,2013-04-24 11:36:00,
2013-04-24 06:41:00,27.0,25.2,30.33,West,277,0.0,0.0,93,0.00,CLR,,0.00,0.0,WeatherDisplay:10.37,2013-04-24 11:41:00,
2013-04-24 06:46:00,26.8,25.0,30.32,West,277,0.0,0.0,93,0.00,CLR,,0.00,5.0,WeatherDisplay:10.37,2013-04-24 11:46:00,
2013-04-24 06:51:00,26.7,25.2,30.33,West,277,0.0,0.0,94,0.00,CLR,,0.00,9.0,WeatherDisplay:10.37,2013-04-24 11:51:00,
2013-04-24 06:56:00,26.5,25.0,30.32,West,277,1.2,0.0,94,0.00,CLR,,0.00,11.0,WeatherDisplay:10.37,2013-04-24 11:56:00,
2013-04-24 07:01:00,26.4,24.9,30.32,West,277,1.2,1.2,94,0.00,CLR,,0.00,14.0,WeatherDisplay:10.37,2013-04-24 12:01:00,
2013-04-24 07:06:00,26.3,24.8,30.32,West,277,2.3,2.3,94,0.00,CLR,,0.00,16.0,WeatherDisplay:10.37,2013-04-24 12:06:00,
2013-04-24 07:11:00,26.3,24.8,30.32,West,277,1.2,1.2,94,0.00,CLR,,0.00,18.0,WeatherDisplay:10.37,2013-04-24 12:11:00,
2013-04-24 07:16:00,26.3,25.1,30.32,West,277,2.3,2.3,95,0.00,CLR,,0.00,21.0,WeatherDisplay:10.37,2013-04-24 12:16:00,
2013-04-24 07:21:00,26.6,25.4,30.32,NW,323,2.3,2.3,95,0.00,CLR,,0.00,28.0,WeatherDisplay:10.37,2013-04-24 12:21:00,
2013-04-24 07:26:00,27.0,26.0,30.32,NW,304,3.5,3.5,96,0.00,CLR,,0.00,32.0,WeatherDisplay:10.37,2013-04-24 12:26:00,
2013-04-24 07:31:00,27.5,26.5,30.32,NW,309,2.3,2.3,96,0.00,CLR,,0.00,40.0,WeatherDisplay:10.37,2013-04-24 12:31:00,
2013-04-24 07:36:00,28.1,27.1,30.32,NW,324,3.5,3.5,96,0.00,CLR,,0.00,53.0,WeatherDisplay:10.37,2013-04-24 12:36:00,
2013-04-24 07:41:00,28.6,27.6,30.33,NW,315,2.3,2.3,96,0.00,CLR,,0.00,76.0,WeatherDisplay:10.37,2013-04-24 12:41:00,
2013-04-24 07:46:00,29.2,27.9,30.33,NW,315,2.3,2.3,95,0.00,CLR,,0.00,77.0,WeatherDisplay:10.37,2013-04-24 12:46:00,
2013-04-24 07:51:00,29.7,28.4,30.33,WNW,298,2.3,2.3,95,0.00,CLR,,0.00,81.0,WeatherDisplay:10.37,2013-04-24 12:51:00,
2013-04-24 07:56:00,30.3,28.8,30.33,WNW,298,2.3,2.3,94,0.00,CLR,,0.00,79.0,WeatherDisplay:10.37,2013-04-24 12:56:00,
2013-04-24 08:01:00,30.8,29.0,30.33,West,280,3.5,3.5,93,0.00,CLR,,0.00,49.0,WeatherDisplay:10.37,2013-04-24 13:01:00,
2013-04-24 08:06:00,31.2,29.1,30.34,West,271,3.5,3.5,92,0.00,CLR,,0.00,104.0,WeatherDisplay:10.37,2013-04-24 13:06:00,
2013-04-24 08:11:00,31.6,29.3,30.34,WSW,253,4.6,4.6,91,0.00,CLR,,0.00,102.0,WeatherDisplay:10.37,2013-04-24 13:11:00,
2013-04-24 08:16:00,32.1,29.5,30.33,WNW,291,2.3,2.3,90,0.00,CLR,,0.00,95.0,WeatherDisplay:10.37,2013-04-24 13:16:00,
2013-04-24 08:21:00,32.5,29.6,30.34,WNW,288,3.5,3.5,89,0.00,CLR,,0.00,139.0,WeatherDisplay:10.37,2013-04-24 13:21:00,
2013-04-24 08:26:00,33.0,29.8,30.34,WNW,292,3.5,3.5,88,0.00,CLR,,0.00,163.0,WeatherDisplay:10.37,2013-04-24 13:26:00,
2013-04-24 08:31:00,33.4,29.9,30.34,West,279,4.6,4.6,87,0.00,CLR,,0.00,186.0,WeatherDisplay:10.37,2013-04-24 13:31:00,
2013-04-24 08:36:00,33.7,30.2,30.34,West,275,3.5,3.5,87,0.00,CLR,,0.00,130.0,WeatherDisplay:10.37,2013-04-24 13:36:00,
2013-04-24 08:41:00,34.1,30.6,30.34,West,270,1.2,1.2,87,0.00,CLR,,0.00,197.0,WeatherDisplay:10.37,2013-04-24 13:41:00,
2013-04-24 08:46:00,34.7,30.7,30.34,West,279,3.5,3.5,85,0.01,RA,,0.01,95.0,WeatherDisplay:10.37,2013-04-24 13:46:00,
2013-04-24 08:51:00,35.3,30.9,30.34,West,279,3.5,3.5,84,0.01,CLR,,0.01,218.0,WeatherDisplay:10.37,2013-04-24 13:51:00,
2013-04-24 08:56:00,35.7,31.0,30.34,West,279,3.5,3.5,83,0.01,CLR,,0.01,336.0,WeatherDisplay:10.37,2013-04-24 13:56:00,
2013-04-24 09:01:00,36.2,31.5,30.34,NW,304,3.5,3.5,83,0.02,RA,,0.02,241.0,WeatherDisplay:10.37,2013-04-24 14:01:00,
2013-04-24 09:06:00,36.7,32.0,30.34,WNW,288,3.5,3.5,83,0.02,CLR,,0.02,209.0,WeatherDisplay:10.37,2013-04-24 14:06:00,
2013-04-24 09:11:00,37.1,32.1,30.34,West,273,3.5,3.5,82,0.02,CLR,,0.02,214.0,WeatherDisplay:10.37,2013-04-24 14:11:00,
2013-04-24 09:16:00,37.4,31.8,30.34,West,264,2.3,2.3,80,0.02,CLR,,0.02,274.0,WeatherDisplay:10.37,2013-04-24 14:16:00,
2013-04-24 09:21:00,37.8,31.9,30.34,NW,323,3.0,3.0,79,0.02,CLR,,0.02,385.0,WeatherDisplay:10.37,2013-04-24 14:21:00,
2013-04-24 09:26:00,37.8,32.2,30.34,NW,318,3.5,3.5,80,0.02,CLR,,0.02,401.0,WeatherDisplay:10.37,2013-04-24 14:26:00,
2013-04-24 09:31:00,38.3,31.7,30.34,SW,228,3.5,3.5,77,0.02,CLR,,0.02,415.0,WeatherDisplay:10.37,2013-04-24 14:31:00,
2013-04-24 09:36:00,38.7,31.5,30.33,SW,227,1.2,1.2,75,0.02,CLR,,0.02,334.0,WeatherDisplay:10.37,2013-04-24 14:36:00,
2013-04-24 09:41:00,39.4,32.1,30.33,WNW,284,3.5,3.5,75,0.02,CLR,,0.02,380.0,WeatherDisplay:10.37,2013-04-24 14:41:00,
2013-04-24 09:46:00,39.9,31.6,30.33,West,278,2.3,2.3,72,0.01,CLR,,0.02,455.0,WeatherDisplay:10.37,2013-04-24 14:46:00,
2013-04-24 09:51:00,40.4,32.1,30.33,West,278,2.3,2.3,72,0.01,CLR,,0.02,341.0,WeatherDisplay:10.37,2013-04-24 14:51:00,
2013-04-24 09:56:00,41.1,32.4,30.33,West,261,1.2,1.2,71,0.01,CLR,,0.02,545.0,WeatherDisplay:10.37,2013-04-24 14:56:00,
2013-04-24 10:01:00,41.8,32.4,30.33,West,267,2.3,2.3,69,0.00,CLR,,0.02,77.0,WeatherDisplay:10.37,2013-04-24 15:01:00,
2013-04-24 10:09:00,42.5,33.0,30.33,NW,317,3.5,3.5,69,0.00,CLR,,0.02,503.0,WeatherDisplay:10.37,2013-04-24 15:09:00,
2013-04-24 10:14:00,43.0,32.4,30.33,WSW,238,2.3,2.3,66,0.00,CLR,,0.02,431.0,WeatherDisplay:10.37,2013-04-24 15:14:00,
2013-04-24 10:19:00,43.6,32.6,30.33,SSW,196,3.5,3.5,65,0.00,CLR,,0.02,536.0,WeatherDisplay:10.37,2013-04-24 15:19:00,
2013-04-24 10:24:00,43.8,32.4,30.34,SSW,201,1.2,1.2,64,0.00,CLR,,0.02,552.0,WeatherDisplay:10.37,2013-04-24 15:24:00,
2013-04-24 10:29:00,44.0,33.4,30.34,SW,224,3.5,3.5,66,0.00,CLR,,0.02,417.0,WeatherDisplay:10.37,2013-04-24 15:29:00,
2013-04-24 10:34:00,44.3,33.7,30.33,SSE,158,3.5,3.5,66,0.00,CLR,,0.02,480.0,WeatherDisplay:10.37,2013-04-24 15:34:00,
2013-04-24 10:39:00,44.6,33.6,30.33,SW,233,3.5,3.5,65,0.00,CLR,,0.02,369.0,WeatherDisplay:10.37,2013-04-24 15:39:00,
2013-04-24 10:44:00,44.9,33.1,30.34,SSW,205,3.5,3.5,63,0.00,CLR,,0.02,631.0,WeatherDisplay:10.37,2013-04-24 15:44:00,
2013-04-24 10:49:00,45.3,33.8,30.34,South,191,3.5,3.5,64,0.00,CLR,,0.02,670.0,WeatherDisplay:10.37,2013-04-24 15:49:00,
2013-04-24 10:54:00,45.8,33.5,30.34,SW,236,6.9,6.9,62,0.00,CLR,,0.02,589.0,WeatherDisplay:10.37,2013-04-24 15:54:00,
2013-04-24 10:59:00,46.2,34.3,30.35,WNW,286,3.5,3.5,63,0.00,CLR,,0.02,360.0,WeatherDisplay:10.37,2013-04-24 15:59:00,
2013-04-24 11:04:00,46.4,34.9,30.35,SSE,155,2.3,2.3,64,0.00,FEW,,0.02,561.0,WeatherDisplay:10.37,2013-04-24 16:04:00,
2013-04-24 11:09:00,46.5,35.4,30.35,SW,224,5.8,5.8,65,0.00,FEW,,0.02,642.0,WeatherDisplay:10.37,2013-04-24 16:09:00,
2013-04-24 11:14:00,46.7,35.2,30.35,South,171,2.3,2.3,64,0.00,FEW,,0.02,160.0,WeatherDisplay:10.37,2013-04-24 16:14:00,
2013-04-24 11:19:00,47.2,36.0,30.36,SW,229,9.2,9.2,65,0.00,FEW,,0.02,538.0,WeatherDisplay:10.37,2013-04-24 16:19:00,
2013-04-24 11:24:00,47.6,35.6,30.36,SSW,211,8.1,8.1,63,0.00,FEW,,0.02,452.0,WeatherDisplay:10.37,2013-04-24 16:24:00,
2013-04-24 11:29:00,48.1,34.9,30.36,SW,220,8.1,8.1,60,0.00,FEW,,0.02,589.0,WeatherDisplay:10.37,2013-04-24 16:29:00,
2013-04-24 11:34:00,48.2,35.8,30.37,WSW,258,6.9,6.9,62,0.00,FEW,,0.02,703.0,WeatherDisplay:10.37,2013-04-24 16:34:00,
2013-04-24 11:39:00,48.5,35.7,30.37,SW,214,4.6,4.6,61,0.00,FEW,,0.02,789.0,WeatherDisplay:10.37,2013-04-24 16:39:00,
2013-04-24 11:44:00,48.9,36.4,30.37,SSW,211,6.9,6.9,62,0.00,FEW,,0.02,745.0,WeatherDisplay:10.37,2013-04-24 16:44:00,
2013-04-24 11:49:00,48.9,34.8,30.37,South,180,8.1,8.1,58,0.00,FEW,,0.02,865.0,WeatherDisplay:10.37,2013-04-24 16:49:00,
2013-04-24 11:54:00,49.0,34.4,30.37,SW,225,7.0,7.0,57,0.00,FEW,,0.02,872.0,WeatherDisplay:10.37,2013-04-24 16:54:00,
2013-04-24 11:59:00,49.4,35.2,30.37,SW,225,5.8,5.8,58,0.00,FEW,,0.02,889.0,WeatherDisplay:10.37,2013-04-24 16:59:00,
2013-04-24 12:04:00,49.5,35.3,30.37,West,273,9.2,9.2,58,0.00,SCT,,0.02,889.0,WeatherDisplay:10.37,2013-04-24 17:04:00,
2013-04-24 12:09:00,49.9,33.9,30.37,WNW,286,6.9,6.9,54,0.00,SCT,,0.02,904.0,WeatherDisplay:10.37,2013-04-24 17:09:00,
2013-04-24 12:14:00,50.2,33.7,30.36,West,278,9.0,9.0,53,0.00,SCT,,0.02,909.0,WeatherDisplay:10.37,2013-04-24 17:14:00,
2013-04-24 12:19:00,50.5,34.0,30.36,SW,223,11.5,11.5,53,0.00,SCT,,0.02,907.0,WeatherDisplay:10.37,2013-04-24 17:19:00,
2013-04-24 12:24:00,50.5,33.0,30.36,SSW,213,5.8,5.8,51,0.00,SCT,,0.02,925.0,WeatherDisplay:10.37,2013-04-24 17:24:00,
2013-04-24 12:29:00,50.8,34.7,30.36,WSW,254,6.9,6.9,54,0.00,SCT,,0.02,928.0,WeatherDisplay:10.37,2013-04-24 17:29:00,
2013-04-24 12:34:00,51.1,33.1,30.36,SW,236,5.8,5.8,50,0.00,SCT,,0.02,933.0,WeatherDisplay:10.37,2013-04-24 17:34:00,
2013-04-24 12:39:00,51.3,33.8,30.35,WSW,241,5.8,5.8,51,0.00,SCT,,0.02,935.0,WeatherDisplay:10.37,2013-04-24 17:39:00,
2013-04-24 12:44:00,51.2,34.6,30.35,SSW,209,6.9,6.9,53,0.00,SCT,,0.02,942.0,WeatherDisplay:10.37,2013-04-24 17:44:00,
2013-04-24 12:49:00,51.5,34.4,30.35,SW,216,6.0,6.0,52,0.00,SCT,,0.02,944.0,WeatherDisplay:10.37,2013-04-24 17:49:00,
2013-04-24 12:54:00,51.7,34.6,30.34,SW,232,4.0,4.0,52,0.00,SCT,,0.02,949.0,WeatherDisplay:10.37,2013-04-24 17:54:00,
2013-04-24 12:59:00,52.2,35.6,30.34,SSW,196,10.4,10.4,53,0.00,SCT,,0.02,812.0,WeatherDisplay:10.37,2013-04-24 17:59:00,
2013-04-24 13:04:00,51.9,34.8,30.34,SW,235,4.0,4.0,52,0.00,SCT,,0.02,891.0,WeatherDisplay:10.37,2013-04-24 18:04:00,
2013-04-24 13:09:00,51.8,33.7,30.33,WSW,240,10.4,10.4,50,0.00,SCT,,0.02,877.0,WeatherDisplay:10.37,2013-04-24 18:09:00,
2013-04-24 13:14:00,52.0,34.4,30.34,West,277,6.9,6.9,51,0.00,SCT,,0.02,965.0,WeatherDisplay:10.37,2013-04-24 18:14:00,
2013-04-24 13:19:00,52.1,34.0,30.33,WSW,243,13.8,13.8,50,0.00,SCT,,0.02,875.0,WeatherDisplay:10.37,2013-04-24 18:19:00,
2013-04-24 13:24:00,52.2,35.6,30.33,West,267,5.8,5.8,53,0.00,SCT,,0.02,947.0,WeatherDisplay:10.37,2013-04-24 18:24:00,
2013-04-24 13:29:00,52.3,34.2,30.33,SW,218,15.0,15.0,50,0.00,SCT,,0.02,972.0,WeatherDisplay:10.37,2013-04-24 18:29:00,
2013-04-24 13:34:00,52.7,36.5,30.33,WSW,242,6.9,6.9,54,0.00,SCT,,0.02,951.0,WeatherDisplay:10.37,2013-04-24 18:34:00,
2013-04-24 13:39:00,53.1,36.4,30.33,NW,304,6.9,6.9,53,0.00,SCT,,0.02,881.0,WeatherDisplay:10.37,2013-04-24 18:39:00,
2013-04-24 13:44:00,52.5,34.9,30.32,WNW,292,8.1,8.1,51,0.00,SCT,,0.02,963.0,WeatherDisplay:10.37,2013-04-24 18:44:00,
2013-04-24 13:49:00,52.8,35.6,30.32,WNW,298,9.0,9.0,52,0.00,SCT,,0.02,962.0,WeatherDisplay:10.37,2013-04-24 18:49:00,
2013-04-24 13:54:00,53.4,33.7,30.32,West,278,8.1,8.1,47,0.00,SCT,,0.02,962.0,WeatherDisplay:10.37,2013-04-24 18:54:00,
2013-04-24 13:59:00,53.2,34.5,30.32,NNW,346,10.4,10.4,49,0.00,SCT,,0.02,954.0,WeatherDisplay:10.37,2013-04-24 18:59:00,
2013-04-24 14:04:00,53.5,34.3,30.32,West,275,11.5,11.5,48,0.00,BKN,,0.02,963.0,WeatherDisplay:10.37,2013-04-24 19:04:00,
2013-04-24 14:09:00,54.0,34.2,30.32,North,355,10.0,10.0,47,0.00,BKN,,0.02,967.0,WeatherDisplay:10.37,2013-04-24 19:09:00,
2013-04-24 14:14:00,53.9,32.5,30.32,WNW,296,10.4,10.4,44,0.00,BKN,,0.02,874.0,WeatherDisplay:10.37,2013-04-24 19:14:00,
2013-04-24 14:19:00,54.3,31.1,30.32,WNW,282,4.6,4.6,41,0.00,BKN,,0.02,958.0,WeatherDisplay:10.37,2013-04-24 19:19:00,
2013-04-24 14:24:00,54.5,31.3,30.31,NW,315,8.1,8.1,41,0.00,BKN,,0.02,956.0,WeatherDisplay:10.37,2013-04-24 19:24:00,
2013-04-24 14:29:00,55.1,33.6,30.31,WSW,252,9.2,9.2,44,0.00,BKN,,0.02,954.0,WeatherDisplay:10.37,2013-04-24 19:29:00,
2013-04-24 14:34:00,55.4,33.8,30.31,NW,316,8.1,8.1,44,0.00,BKN,,0.02,974.0,WeatherDisplay:10.37,2013-04-24 19:34:00,
2013-04-24 14:39:00,55.6,32.2,30.31,WNW,288,5.8,5.8,41,0.00,BKN,,0.02,939.0,WeatherDisplay:10.37,2013-04-24 19:39:00,
2013-04-24 14:44:00,55.6,31.6,30.31,SW,228,10.4,10.4,40,0.00,BKN,,0.02,930.0,WeatherDisplay:10.37,2013-04-24 19:44:00,
2013-04-24 14:49:00,55.6,33.4,30.31,SW,236,13.8,13.8,43,0.00,BKN,,0.02,923.0,WeatherDisplay:10.37,2013-04-24 19:49:00,
2013-04-24 14:54:00,55.8,34.8,30.31,WNW,282,11.0,11.0,45,0.00,BKN,,0.02,926.0,WeatherDisplay:10.37,2013-04-24 19:54:00,
2013-04-24 14:59:00,56.0,35.5,30.30,SW,227,10.4,10.4,46,0.00,BKN,,0.02,912.0,WeatherDisplay:10.37,2013-04-24 19:59:00,
2013-04-24 15:04:00,56.6,36.6,30.30,West,261,5.8,5.8,47,0.00,SCT,,0.02,907.0,WeatherDisplay:10.37,2013-04-24 20:04:00,
2013-04-24 15:09:00,57.1,34.8,30.29,West,264,11.5,11.5,43,0.00,SCT,,0.02,904.0,WeatherDisplay:10.37,2013-04-24 20:09:00,
2013-04-24 15:14:00,57.2,34.3,30.29,NNW,340,10.4,10.4,42,0.00,SCT,,0.02,896.0,WeatherDisplay:10.37,2013-04-24 20:14:00,
2013-04-24 15:19:00,56.9,34.6,30.29,NW,310,8.0,8.0,43,0.00,SCT,,0.02,895.0,WeatherDisplay:10.37,2013-04-24 20:19:00,
2013-04-24 15:24:00,56.7,34.4,30.29,WNW,282,5.0,5.0,43,0.00,SCT,,0.02,877.0,WeatherDisplay:10.37,2013-04-24 20:24:00,
2013-04-24 15:29:00,56.8,33.3,30.28,WNW,300,1.2,1.2,41,0.00,SCT,,0.02,872.0,WeatherDisplay:10.37,2013-04-24 20:29:00,
2013-04-24 15:34:00,57.1,33.6,30.28,West,274,12.0,12.0,41,0.00,SCT,,0.02,854.0,WeatherDisplay:10.37,2013-04-24 20:34:00,
2013-04-24 15:39:00,57.3,32.5,30.28,WSW,252,11.5,11.5,39,0.00,SCT,,0.02,842.0,WeatherDisplay:10.37,2013-04-24 20:39:00,
2013-04-24 15:44:00,57.6,34.7,30.28,West,279,11.5,11.5,42,0.00,SCT,,0.02,833.0,WeatherDisplay:10.37,2013-04-24 20:44:00,
2013-04-24 15:49:00,57.7,32.9,30.28,West,271,10.4,10.4,39,0.00,SCT,,0.02,821.0,WeatherDisplay:10.37,2013-04-24 20:49:00,
2013-04-24 15:54:00,57.8,32.3,30.28,WSW,249,9.2,9.2,38,0.00,SCT,,0.02,817.0,WeatherDisplay:10.37,2013-04-24 20:54:00,
2013-04-24 15:59:00,57.9,33.1,30.28,SW,218,7.0,7.0,39,0.00,SCT,,0.02,788.0,WeatherDisplay:10.37,2013-04-24 20:59:00,
2013-04-24 16:04:00,58.1,32.6,30.27,West,263,12.7,12.7,38,0.00,SCT,,0.02,789.0,WeatherDisplay:10.37,2013-04-24 21:04:00,
2013-04-24 16:09:00,58.1,33.2,30.27,WSW,240,8.1,8.1,39,0.00,SCT,,0.02,779.0,WeatherDisplay:10.37,2013-04-24 21:09:00,
2013-04-24 16:14:00,58.2,33.3,30.27,West,276,5.8,5.8,39,0.00,SCT,,0.02,768.0,WeatherDisplay:10.37,2013-04-24 21:14:00,
2013-04-24 16:19:00,58.3,30.7,30.27,WNW,302,4.6,4.6,35,0.00,SCT,,0.02,752.0,WeatherDisplay:10.37,2013-04-24 21:19:00,
2013-04-24 16:24:00,58.4,31.5,30.27,SW,221,9.2,9.2,36,0.00,SCT,,0.02,740.0,WeatherDisplay:10.37,2013-04-24 21:24:00,
2013-04-24 16:29:00,58.6,31.7,30.26,WSW,242,8.1,8.1,36,0.00,SCT,,0.02,726.0,WeatherDisplay:10.37,2013-04-24 21:29:00,
2013-04-24 16:34:00,58.9,32.0,30.26,West,276,6.9,6.9,36,0.00,SCT,,0.02,714.0,WeatherDisplay:10.37,2013-04-24 21:34:00,
2013-04-24 16:39:00,59.2,32.2,30.26,West,274,11.5,11.5,36,0.00,SCT,,0.02,700.0,WeatherDisplay:10.37,2013-04-24 21:39:00,
2013-04-24 16:44:00,59.1,31.4,30.26,West,275,5.0,5.0,35,0.00,SCT,,0.02,686.0,WeatherDisplay:10.37,2013-04-24 21:44:00,
2013-04-24 16:49:00,59.0,32.7,30.26,WSW,254,8.1,8.1,37,0.00,SCT,,0.02,670.0,WeatherDisplay:10.37,2013-04-24 21:49:00,
2013-04-24 16:54:00,59.1,32.1,30.25,WNW,290,10.4,10.4,36,0.00,SCT,,0.02,659.0,WeatherDisplay:10.37,2013-04-24 21:54:00,
2013-04-24 16:59:00,58.9,32.7,30.25,NW,315,9.2,9.2,37,0.00,SCT,,0.02,645.0,WeatherDisplay:10.37,2013-04-24 21:59:00,
2013-04-24 17:04:00,58.9,30.6,30.25,WSW,251,9.2,9.2,34,0.00,SCT,,0.02,628.0,WeatherDisplay:10.37,2013-04-24 22:04:00,
2013-04-24 17:09:00,59.0,32.1,30.25,WSW,242,8.1,8.1,36,0.00,SCT,,0.02,622.0,WeatherDisplay:10.37,2013-04-24 22:09:00,
2013-04-24 17:14:00,59.2,30.8,30.25,West,270,5.0,5.0,34,0.00,SCT,,0.02,599.0,WeatherDisplay:10.37,2013-04-24 22:14:00,
2013-04-24 17:19:00,59.2,32.2,30.25,SW,223,8.1,8.1,36,0.00,SCT,,0.02,598.0,WeatherDisplay:10.37,2013-04-24 22:19:00,
2013-04-24 17:24:00,59.3,31.6,30.25,SW,219,6.9,6.9,35,0.00,SCT,,0.02,571.0,WeatherDisplay:10.37,2013-04-24 22:24:00,
2013-04-24 17:29:00,59.5,31.1,30.25,South,178,6.9,6.9,34,0.00,SCT,,0.02,543.0,WeatherDisplay:10.37,2013-04-24 22:29:00,
2013-04-24 17:34:00,59.6,31.2,30.24,SW,227,3.5,3.5,34,0.00,SCT,,0.02,522.0,WeatherDisplay:10.37,2013-04-24 22:34:00,
2013-04-24 17:39:00,59.6,31.2,30.24,SW,229,5.8,5.8,34,0.00,SCT,,0.02,504.0,WeatherDisplay:10.37,2013-04-24 22:39:00,
2013-04-24 17:44:00,59.5,31.8,30.24,West,268,6.0,6.0,35,0.00,SCT,,0.02,490.0,WeatherDisplay:10.37,2013-04-24 22:44:00,
2013-04-24 17:49:00,59.6,31.2,30.24,SSW,203,8.1,8.1,34,0.00,SCT,,0.02,475.0,WeatherDisplay:10.37,2013-04-24 22:49:00,
2013-04-24 17:54:00,59.7,31.3,30.24,SSW,210,9.2,9.2,34,0.00,SCT,,0.02,455.0,WeatherDisplay:10.37,2013-04-24 22:54:00,
2013-04-24 17:59:00,59.4,29.5,30.25,WSW,238,11.5,11.5,32,0.00,SCT,,0.02,434.0,WeatherDisplay:10.37,2013-04-24 22:59:00,
2013-04-24 18:04:00,59.1,30.7,30.25,SSW,210,9.2,9.2,34,0.00,FEW,,0.02,417.0,WeatherDisplay:10.37,2013-04-24 23:04:00,
2013-04-24 18:09:00,59.1,30.0,30.25,West,279,6.9,6.9,33,0.00,FEW,,0.02,399.0,WeatherDisplay:10.37,2013-04-24 23:09:00,
2013-04-24 18:14:00,58.9,29.8,30.25,West,275,6.9,6.9,33,0.00,FEW,,0.02,381.0,WeatherDisplay:10.37,2013-04-24 23:14:00,
2013-04-24 18:19:00,58.7,31.8,30.25,West,275,5.8,5.8,36,0.00,FEW,,0.02,364.0,WeatherDisplay:10.37,2013-04-24 23:19:00,
2013-04-24 18:24:00,58.2,30.7,30.25,WSW,246,5.8,5.8,35,0.00,FEW,,0.02,76.0,WeatherDisplay:10.37,2013-04-24 23:24:00,
2013-04-24 18:29:00,57.9,29.7,30.25,SW,226,6.9,6.9,34,0.00,FEW,,0.02,327.0,WeatherDisplay:10.37,2013-04-24 23:29:00,
2013-04-24 18:34:00,57.6,30.1,30.25,West,260,8.1,8.1,35,0.00,FEW,,0.02,306.0,WeatherDisplay:10.37,2013-04-24 23:34:00,
2013-04-24 18:39:00,57.5,29.3,30.25,WSW,254,5.8,5.8,34,0.00,FEW,,0.02,47.0,WeatherDisplay:10.37,2013-04-24 23:39:00,
2013-04-24 18:44:00,57.4,29.9,30.25,SSW,213,4.6,4.6,35,0.00,FEW,,0.02,46.0,WeatherDisplay:10.37,2013-04-24 23:44:00,
2013-04-24 18:49:00,57.3,29.9,30.25,SSW,201,4.6,4.6,35,0.00,FEW,,0.02,44.0,WeatherDisplay:10.37,2013-04-24 23:49:00,
2013-04-24 18:54:00,57.1,29.7,30.25,SSW,197,5.8,5.8,35,0.00,FEW,,0.02,42.0,WeatherDisplay:10.37,2013-04-24 23:54:00,
2013-04-24 18:59:00,57.0,29.6,30.25,WSW,256,5.8,5.8,35,0.00,FEW,,0.02,40.0,WeatherDisplay:10.37,2013-04-24 23:59:00,
2013-04-24 19:04:00,57.0,30.3,30.25,WSW,242,4.6,4.6,36,0.00,FEW,,0.02,39.0,WeatherDisplay:10.37,2013-04-25 00:04:00,
2013-04-24 19:09:00,56.9,29.5,30.25,SW,231,5.8,5.8,35,0.00,FEW,,0.02,39.0,WeatherDisplay:10.37,2013-04-25 00:09:00,
2013-04-24 19:14:00,56.8,30.1,30.25,SW,217,4.6,4.6,36,0.00,FEW,,0.02,35.0,WeatherDisplay:10.37,2013-04-25 00:14:00,
2013-04-24 19:19:00,56.7,30.0,30.25,SW,227,5.8,5.8,36,0.00,FEW,,0.02,33.0,WeatherDisplay:10.37,2013-04-25 00:19:00,
2013-04-24 19:24:00,56.6,29.9,30.25,SW,236,1.2,1.2,36,0.00,FEW,,0.02,33.0,WeatherDisplay:10.37,2013-04-25 00:24:00,
2013-04-24 19:29:00,56.4,30.4,30.24,SSW,198,2.3,2.3,37,0.00,FEW,,0.02,32.0,WeatherDisplay:10.37,2013-04-25 00:29:00,
2013-04-24 19:34:00,56.3,31.0,30.24,South,190,3.5,3.5,38,0.00,FEW,,0.02,28.0,WeatherDisplay:10.37,2013-04-25 00:34:00,
2013-04-24 19:39:00,56.1,31.5,30.24,SSW,209,3.5,3.5,39,0.00,FEW,,0.02,26.0,WeatherDisplay:10.37,2013-04-25 00:39:00,
2013-04-24 19:44:00,55.9,32.5,30.24,South,189,3.5,3.5,41,0.00,FEW,,0.02,23.0,WeatherDisplay:10.37,2013-04-25 00:44:00,
2013-04-24 19:49:00,55.6,32.2,30.24,SSE,165,3.5,3.5,41,0.00,FEW,,0.02,21.0,WeatherDisplay:10.37,2013-04-25 00:49:00,
2013-04-24 19:54:00,55.3,32.0,30.24,South,181,3.5,3.5,41,0.00,FEW,,0.02,18.0,WeatherDisplay:10.37,2013-04-25 00:54:00,
2013-04-24 19:59:00,55.1,32.4,30.24,South,171,2.3,2.3,42,0.00,FEW,,0.02,14.0,WeatherDisplay:10.37,2013-04-25 00:59:00,
2013-04-24 20:04:00,54.7,32.6,30.24,SSE,167,4.6,4.6,43,0.00,FEW,,0.02,11.0,WeatherDisplay:10.37,2013-04-25 01:04:00,
2013-04-24 20:09:00,54.3,32.8,30.24,South,177,3.5,3.5,44,0.00,FEW,,0.02,7.0,WeatherDisplay:10.37,2013-04-25 01:09:00,
2013-04-24 20:14:00,53.9,33.0,30.24,South,170,4.6,4.6,45,0.00,FEW,,0.02,0.0,WeatherDisplay:10.37,2013-04-25 01:14:00,
2013-04-24 20:19:00,53.5,33.2,30.24,South,186,5.8,5.8,46,0.00,FEW,,0.02,0.0,WeatherDisplay:10.37,2013-04-25 01:19:00,
2013-04-24 20:24:00,53.1,33.9,30.24,ESE,122,3.5,3.5,48,0.00,FEW,,0.02,0.0,WeatherDisplay:10.37,2013-04-25 01:24:00,
2013-04-24 20:29:00,52.8,34.7,30.24,SSE,158,3.5,3.5,50,0.00,FEW,,0.02,0.0,WeatherDisplay:10.37,2013-04-25 01:29:00,
2013-04-24 20:34:00,52.4,35.3,30.24,South,171,5.0,5.0,52,0.00,FEW,,0.02,0.0,WeatherDisplay:10.37,2013-04-25 01:34:00,
2013-04-24 20:39:00,52.0,35.4,30.24,SSW,196,5.8,5.8,53,0.00,FEW,,0.02,0.0,WeatherDisplay:10.37,2013-04-25 01:39:00,
2013-04-24 20:44:00,51.6,35.0,30.24,South,190,4.6,4.6,53,0.00,FEW,,0.02,0.0,WeatherDisplay:10.37,2013-04-25 01:44:00,
2013-04-24 20:49:00,51.2,35.6,30.24,SSE,163,4.6,4.6,55,0.00,FEW,,0.02,0.0,WeatherDisplay:10.37,2013-04-25 01:49:00,
2013-04-24 20:54:00,50.8,35.2,30.24,South,172,4.6,4.6,55,0.00,FEW,,0.02,0.0,WeatherDisplay:10.37,2013-04-25 01:54:00,
2013-04-24 20:59:00,50.6,35.5,30.24,SSE,153,6.9,6.9,56,0.00,FEW,,0.02,0.0,WeatherDisplay:10.37,2013-04-25 01:59:00,
2013-04-24 21:04:00,50.3,35.6,30.24,South,174,5.8,5.8,57,0.00,FEW,,0.02,0.0,WeatherDisplay:10.37,2013-04-25 02:04:00,
2013-04-24 21:09:00,50.1,35.9,30.24,SSE,164,5.8,5.8,58,0.00,FEW,,0.02,0.0,WeatherDisplay:10.37,2013-04-25 02:09:00,
2013-04-24 21:14:00,49.9,36.1,30.24,SSE,163,4.6,4.6,59,0.00,FEW,,0.02,0.0,WeatherDisplay:10.37,2013-04-25 02:14:00,
2013-04-24 21:19:00,49.6,36.3,30.24,South,191,5.8,5.8,60,0.00,FEW,,0.02,0.0,WeatherDisplay:10.37,2013-04-25 02:19:00,
2013-04-24 21:24:00,49.3,36.0,30.25,SSW,194,6.9,6.9,60,0.00,FEW,,0.02,0.0,WeatherDisplay:10.37,2013-04-25 02:24:00,
2013-04-24 21:29:00,49.0,36.1,30.25,SSE,150,5.8,5.8,61,0.00,FEW,,0.02,0.0,WeatherDisplay:10.37,2013-04-25 02:29:00,
2013-04-24 21:34:00,48.6,36.2,30.25,South,176,5.0,5.0,62,0.00,FEW,,0.02,0.0,WeatherDisplay:10.37,2013-04-25 02:34:00,
2013-04-24 21:39:00,48.3,36.3,30.25,SSE,158,6.9,6.9,63,0.00,FEW,,0.02,0.0,WeatherDisplay:10.37,2013-04-25 02:39:00,
2013-04-24 21:44:00,48.0,36.4,30.25,ESE,115,3.5,3.5,64,0.00,FEW,,0.02,0.0,WeatherDisplay:10.37,2013-04-25 02:44:00,
2013-04-24 21:49:00,47.7,36.1,30.26,SSE,155,4.6,4.6,64,0.00,FEW,,0.02,0.0,WeatherDisplay:10.37,2013-04-25 02:49:00,
2013-04-24 21:54:00,47.4,36.2,30.26,South,175,3.5,3.5,65,0.00,FEW,,0.02,0.0,WeatherDisplay:10.37,2013-04-25 02:54:00,
2013-04-24 21:59:00,47.2,36.0,30.26,South,171,3.5,3.5,65,0.00,FEW,,0.02,0.0,WeatherDisplay:10.37,2013-04-25 02:59:00,
2013-04-24 22:04:00,46.9,36.1,30.26,SSW,201,7.0,7.0,66,0.00,FEW,,0.02,0.0,WeatherDisplay:10.37,2013-04-25 03:04:00,
2013-04-24 22:09:00,46.8,36.0,30.26,South,174,2.3,2.3,66,0.00,FEW,,0.02,0.0,WeatherDisplay:10.37,2013-04-25 03:09:00,
2013-04-24 22:14:00,46.6,35.8,30.26,SSW,197,4.0,4.0,66,0.00,FEW,,0.02,0.0,WeatherDisplay:10.37,2013-04-25 03:14:00,
2013-04-24 22:19:00,46.5,36.1,30.27,SSW,202,4.6,4.6,67,0.00,FEW,,0.02,0.0,WeatherDisplay:10.37,2013-04-25 03:19:00,
2013-04-24 22:24:00,46.3,35.9,30.27,South,186,4.6,4.6,67,0.00,FEW,,0.02,0.0,WeatherDisplay:10.37,2013-04-25 03:24:00,
2013-04-24 22:29:00,46.2,35.8,30.27,SSW,199,5.0,5.0,67,0.00,FEW,,0.02,0.0,WeatherDisplay:10.37,2013-04-25 03:29:00,
2013-04-24 22:34:00,46.0,35.7,30.27,SSE,168,6.9,6.9,67,0.00,FEW,,0.02,0.0,WeatherDisplay:10.37,2013-04-25 03:34:00,
2013-04-24 22:39:00,45.9,35.6,30.27,SSE,156,9.2,9.2,67,0.00,FEW,,0.02,0.0,WeatherDisplay:10.37,2013-04-25 03:39:00,
2013-04-24 22:44:00,45.8,35.5,30.28,SSW,192,4.6,4.6,67,0.00,FEW,,0.02,0.0,WeatherDisplay:10.37,2013-04-25 03:44:00,
2013-04-24 22:49:00,45.7,35.7,30.28,SSW,196,6.9,6.9,68,0.00,FEW,,0.02,0.0,WeatherDisplay:10.37,2013-04-25 03:49:00,
2013-04-24 22:54:00,45.6,35.6,30.28,South,172,4.6,4.6,68,0.00,FEW,,0.02,0.0,WeatherDisplay:10.37,2013-04-25 03:54:00,
2013-04-24 22:59:00,45.4,35.5,30.28,South,185,5.8,5.8,68,0.00,FEW,,0.02,0.0,WeatherDisplay:10.37,2013-04-25 03:59:00,
2013-04-24 23:01:00,45.4,35.5,30.28,South,187,6.9,6.9,68,0.00,FEW,,0.02,0.0,WeatherDisplay:10.37,2013-04-25 04:01:00,
2013-04-24 23:06:00,45.3,35.4,30.28,South,182,5.8,5.8,68,0.00,FEW,,0.02,0.0,WeatherDisplay:10.37,2013-04-25 04:06:00,
2013-04-24 23:11:00,45.1,35.5,30.28,SSE,164,3.5,3.5,69,0.00,FEW,,0.02,0.0,WeatherDisplay:10.37,2013-04-25 04:11:00,
2013-04-24 23:16:00,44.9,35.3,30.28,South,182,6.0,6.0,69,0.00,FEW,,0.02,0.0,WeatherDisplay:10.37,2013-04-25 04:16:00,
2013-04-24 23:21:00,44.8,35.2,30.28,South,182,3.5,3.5,69,0.00,FEW,,0.02,0.0,WeatherDisplay:10.37,2013-04-25 04:21:00,
2013-04-24 23:26:00,44.6,35.4,30.28,South,180,3.5,3.5,70,0.00,FEW,,0.02,0.0,WeatherDisplay:10.37,2013-04-25 04:26:00,
2013-04-24 23:31:00,44.4,35.2,30.28,SSW,202,3.5,3.5,70,0.00,FEW,,0.02,0.0,WeatherDisplay:10.37,2013-04-25 04:31:00,
2013-04-24 23:36:00,44.2,35.4,30.29,SSW,202,4.6,4.6,71,0.00,FEW,,0.02,0.0,WeatherDisplay:10.37,2013-04-25 04:36:00,
2013-04-24 23:41:00,44.0,35.2,30.29,SSW,195,4.6,4.6,71,0.00,FEW,,0.02,0.0,WeatherDisplay:10.37,2013-04-25 04:41:00,
2013-04-24 23:46:00,43.9,35.1,30.29,SSW,200,6.9,6.9,71,0.00,FEW,,0.02,0.0,WeatherDisplay:10.37,2013-04-25 04:46:00,
2013-04-24 23:51:00,43.9,35.1,30.29,SSW,211,5.8,5.8,71,0.00,FEW,,0.02,0.0,WeatherDisplay:10.37,2013-04-25 04:51:00,
2013-04-24 23:56:00,43.9,35.1,30.29,SW,232,8.1,8.1,71,0.00,FEW,,0.02,0.0,WeatherDisplay:10.37,2013-04-25 04:56:00,